Погода Кики Акки

Погода Кики Акки : погода сейчас, прогноз погоды и архив. Всё, что Вы хотите узнать о погоде Кики Акки!

Хотите узнать прогноз погоды Кики Акки? Тогда Вам сюда: Погода Кики Акки

Поиск расширенной информации на нашем сайте:

Другие новости

Новости СМИ2

Главная страница сайта

Новости сайта

02.10.2013

Напоминаем, что на нашем новом сайте вы можете получить высокодетализированные прогнозы погоды по пунктам России, СНГ и мира (включающие важные для авиации метеовеличины, такие как направление и скорость ветра, видимость, явления погоды, количество и форма облачности, нижняя и верхняя граница облачности), а также ознакомиться с разнообразными материалами по авиационной метеорологии и подборкой полезных ссылок на эту тему.

Сайт Метеоцентр.Азия посвящён разработке технологий оптимизации авиаметеорологического обслуживания, включая проектирование и перспективное создание нескольких автоматизированных авиаметеорологических систем:
- система выпуска высокодетальных прогностических карт явлений погоды для нижнего воздушного пространства по России и ближнему зарубежью;
- система верификации прогнозов TAF (выпускаемых синоптиками официальных АМСГ РФ и ближнего зарубежья) и AUTOTAF (выпускаемых сайтом Метеоцентр.Азия) - выявление ошибок, онлайн-сопоставление с фактической погодой METAR, автоматическое внесение коррективов в прогнозы при резком отклонении фактической погоды от прогноза, подсчёт оправдываемости прогнозов по элементам и в целом;
- система обработки, анализа и отображения авиаметеорологической информации для применения провайдерами метеорологической информации.

Рекомендуем: Рыбалка сайт о рыбалке.

Погода Кики Акки - сегодня

Время (UTC), дата Ветер
(°,м/с) 
Видим.   Явления Облачность Т
(°С)
Тd
(°С)
f(%) Тe
(°С)
Pmin
(гПа)
dP
(гПа)
Po
(мм)
O2
(г/м3)
Тmin Tmax R s Состояние
почвы
21 23.04.17 090 (В) 20000 м    9/0 средняя 
[Ac trans]
-4.1 -5.1 93 -4  1017.8  -0.6  760  311           
00 24.04.17 100 (В) 20000 м    10/0 средняя 
[Ac As]
-1 -5.2 73 1017  -0.7  759  308           
03 24.04.17 100 (В) 20000 м    10/0 средняя 
[Ac As]
+3.2 -3 64 +3  1015.7  -1.2  759  302  -4.6      77  неравномерный
сухой снег
100% 
06 24.04.17 090 (В) 20000 м    10/0 верхняя 
[Ci fib]
+5.9 -4.4 48 +6  1013.7  -2  757  299           
09 24.04.17 110 (В) 20000 м    8/0 средняя 
[Ac trans]
+8.6 -5.7 36 +9  1012.6  -1  756  296           
12 24.04.17 120 (ЮВ) 20000 м    10/4 600 м средняя 
[Sc|Ac As]
+8.3 -4.4 40 +9  1011.7  -0.9  756  296           
15 24.04.17 220 (ЮЗ) 20000 м    10/4 600 м средняя, верхняя 
[Sc|Ac trans|Ci sp]
+5.7 -3.1 53 +5  1011.9  0.2  756  299    +10.3       
18 24.04.17 240 (ЮЗ) 20000 м    10/6 600 м средняя 
[Sc|Ac As]
+4.3 -2.4 62 +4  1012.5  0.6  756  300           
21 24.04.17 240 (ЮЗ) 20000 м  {ливн. осадки}  10/8 300 м кучево-дожд., средняя 
[Cb cap|Ac As]
+2.3 -0.6 81 +1  1014.8  2.3  758  303           
00 25.04.17 200 (Ю) 20000 м  {ливн. осадки}  8/8 600 м 
[Sc]
+1.7 -1.3 80 +1  1017  2.2  760  304           
03 25.04.17 230 (ЮЗ) 20000 м    4/0 верхняя 
[Ci fib]
+6.3 -1.7 57 +5  1018.5  1.5  761  300  +1.6      70  неравномерный
мокрый или
старый снег
100% 
06 25.04.17 250 (З) 20000 м    10/1 600 м верхняя 
[Cu hum|Ci]
+9.6 -3.5 39 +9  1020.4  1.9  762  297           
09 25.04.17 230 (ЮЗ) 20000 м    3/0 верхняя 
[Ci fib]
+11.1 -5.9 30 +11  1020.9  0.5  763  296           
12 25.04.17 170 (Ю) 20000 м    10/0 средняя, верхняя 
[Ac trans|Cs]
+10.1 -6.3 31 +10  1019.7  -1.2  762  297           
15 25.04.17 150 (ЮВ) 20000 м    10/0 средняя 
[As op]
+6.9 -4.1 45 +6  1017.5  -2.2  760  299    +11.8       
18 25.04.17 130 (ЮВ) 4000 м  слаб. ливневой дождь  10/10 630 м кучево-дожд. 
[Cb cap]
+3.9 +2.5 91 +3  1013.4  -4.2  757  300           
21 25.04.17 180 (Ю) 20000 м  {ливн. осадки}  10/6 600 м кучево-дожд., средняя 
[Cb cap|Ac As]
+4.4 +3.1 91 +3  1009.6  -3.7  754  299           
00 26.04.17 200 (Ю) 20000 м  {ливн. осадки}  ясно 
+5.8 +3 82 +5  1009.4  -0.1  754  297           
03 26.04.17 210 (ЮЗ) 20000 м    6/0 средняя 
[Ac trans]
+9 +2.7 65 +8  1010.7  1.3  755  294  +3.5    60  неравномерный
мокрый или
старый снег
100% 
06 26.04.17 250 (З) 4{12}  20000 м    4/4 600 м 
[Cu hum]
+9 +1.7 60 +8  1012.7  756  295           
09 26.04.17 270 (З) 5{10}  20000 м    8/8 600 м 
[Sc]
+6.9 +1.2 67 +5  1015.6  2.8  758  298           
12 26.04.17 280 (З) 20000 м    3/3 600 м 
[Sc]
+6.1 -0.2 64 +6  1016.9  1.3  759  299           
15 26.04.17 350 (С) 20000 м    3/3 600 м 
[Sc]
+2.6 -2 72 +1  1017.6  0.6  760  304    +9.4       
18 26.04.17 360 (С) 20000 м    ясно 
-1.1 -3.3 85 -2  1017.6  0.1  760  308           
21 26.04.17 010 (С) 20000 м    4/0 средняя 
[Ac trans]
-1.4 -3.6 85 -3  1017.4  -0.2  760  308           
Время (UTC), дата Ветер
(°,м/с) 
Видим.   Явления Облачность Т
(°С)
Тd
(°С)
f(%) Тe
(°С)
Pmin
(гПа)
dP
(гПа)
Po
(мм)
O2
(г/м3)
Тmin Tmax R s Состояние
почвы

Для получения пояснительной информации подведите курсор к названию столбца.

ПОГОДА Кики Акки - архив

Всё, что Вы хотите узнать о погоде Кики Акки - удобно и подробно!

Выберите нужную дату (начиная с 1 января 2015* года) и нажмите кнопку "Найти".
Будут отображены архивные сводки погоды по пункту Кики Акки, начиная с указанной даты.


Отображать данные в формате CSV (для использования в таблицах Excel)


Внимание! Наш архив погоды предназначен исключительно для личного некоммерческого использования в познавательных целях. Если Вам необходимы официальные справки о состоянии погоды (для производственных, юридических, коммерческих и т.п. целей), обращайтесь в органы Росгидромета.

*Примечание: данная дата относится к архиву по метеостанциям СССР (Россия, СНГ, Балтия).
Архив по метеостанциям Зарубежной Европы и Азии (кроме Китая) хранится 10 дней, по другим регионам земного шара (Китай, Африка, Америка, Австралия, Океания) - 1 день.

Кики Акки - район местоположения метеостанции


Название, широта, долгота, высота метеостанции:
Кики Акки (Толька) 63.8°ш. 82.7°д. 33 м над ур. моря [Российская Федерация]

Дополнительная информация

В oтличие oт бoльшинства пoгoдных сайтoв мы публикуем пoдрoбную метеoинфoрмацию в детальнoм прoфессиoнальнoм фoрмате.

Характеристики температуры и влажнoсти вoздуха измеряются на высoте 2 м в тени вдали oт зданий и деревьев.
Скoрoсть ветра измеряется на высoте 10 м (на урoвне рoста челoвека скoрoсть ветра ниже в 1.5-2 раза). Если метеoстанция нахoдится в гoрoде или в лесу, тo скoрoсть ветра занижена на 2-4 м/с пo сравнению с oткрытым местoм. Скoрoсть ветра над акватoриями крупных рек и oзёр, а также на вершинах хoлмoв на 2-5 м/с выше, чем в oбычных услoвиях.
Атмoсфернoе давление в разных тoчках местнoсти мoжет значительнo oтличаться oт давления на метеoстанции, в зависимoсти oт услoвий рельефа (при пoдъёме на 10 м давление пoнижается примернo на 1 мм рт.ст.).